User: anonymous   Login
Location: Montr�al
(45.5000°N, 73.5830°W)
Time: 15:49:53
(UTC-04:00)
Language:

Cosmos 2369 - Orbit

View from above orbital plane
View from above orbital plane
View from above satellite
View from above satellite

Ground track
Ground track

The orbit data is extracted from the following two-line orbital elements,

1 26069U 00006A   16242.48702668  .00000371  00000-0  22281-3 0  9994
2 26069  70.9934 250.1311 0012565 307.8272  52.1712 14.13338973854904
Epoch (UTC): 29 August 2016 11:41:19
Eccentricity: 0.0012565
inclination: 70.9934°
perigee height: 839 km
apogee height: 857 km
right ascension of ascending node: 250.1311°
argument of perigee: 307.8272°
revolutions per day: 14.13338973
mean anomaly at epoch: 52.1712°
orbit number at epoch: 85490

The dashed part of the orbit path shows where the satellite is in the earth's shadow,  

DLR